• In Germany
  • List of Countries
  • For 7 days
  • Water Temperature
  • Satellite Maps
  • Weather Map
  • Weather Widgets
  • user-avatar
    Login

    Hourly Weather Linz

    Today, 24 July, Monday

    Time Temperature Precipitation Wind Pressure Humidity
    00:00 +17°C° 0.2 mm 0 mps 733 mmHg 95%
    01:00 +17°C° 0 mm 0 mps 733 mmHg 95%
    02:00 +17°C° 0.6 mm 0 mps 732 mmHg 95%
    03:00 +17°C° 0.6 mm 0 mps 732 mmHg 96%
    04:00 +17°C° 0.6 mm 0 mps 731 mmHg 96%
    05:00 +17°C° 1.5 mm 0 mps 731 mmHg 96%
    06:00 +19°C° 1.5 mm 1 mps 730 mmHg 97%
    07:00 +19°C° 1.5 mm 1 mps 730 mmHg 97%
    08:00 +19°C° 1.8 mm 1 mps 730 mmHg 96%
    09:00 +18°C° 1.8 mm 2 mps 729 mmHg 96%
    10:00 +19°C° 1.8 mm 2 mps 729 mmHg 95%
    11:00 +18°C° 1.2 mm 2 mps 728 mmHg 94%
    12:00 +18°C° 1.2 mm 2 mps 728 mmHg 93%
    13:00 +19°C° 0 mm 1 mps 727 mmHg 96%
    14:00 +18°C° 2.1 mm 2 mps 727 mmHg 96%
    15:00 +18°C° 2.1 mm 3 mps 727 mmHg 95%
    16:00 +18°C° 2.1 mm 4 mps 727 mmHg 94%
    17:00 +17°C° 0.8 mm 4 mps 727 mmHg 94%
    18:00 +17°C° 0.8 mm 4 mps 728 mmHg 95%
    19:00 +16°C° 0.8 mm 3 mps 728 mmHg 95%
    20:00 +16°C° 0.1 mm 3 mps 728 mmHg 95%
    21:00 +14°C° 0.1 mm 3 mps 728 mmHg 95%
    22:00 +14°C° 0.1 mm 3 mps 728 mmHg 95%
    23:00 +14°C° 0 mm 3 mps 728 mmHg 95%

    Tomorrow, 25 July, Tuesday

    Time Temperature Precipitation Wind Pressure Humidity
    00:00 +13°C° 0 mm 3 mps 728 mmHg 95%
    01:00 +13°C° 0 mm 3 mps 728 mmHg 95%
    02:00 +12°C° 0 mm 3 mps 728 mmHg 95%
    03:00 +12°C° 0 mm 3 mps 728 mmHg 95%
    04:00 +12°C° 0 mm 3 mps 728 mmHg 96%
    05:00 +12°C° 0 mm 3 mps 728 mmHg 94%
    06:00 +13°C° 0 mm 3 mps 727 mmHg 93%
    07:00 +13°C° 0 mm 4 mps 727 mmHg 91%
    08:00 +14°C° 0.1 mm 4 mps 727 mmHg 87%
    09:00 +15°C° 0.1 mm 5 mps 727 mmHg 83%
    10:00 +16°C° 0.1 mm 5 mps 727 mmHg 79%
    11:00 +17°C° 0.1 mm 5 mps 727 mmHg 72%
    12:00 +19°C° 0.1 mm 5 mps 727 mmHg 65%
    13:00 +20°C° 0.1 mm 5 mps 727 mmHg 58%
    14:00 +20°C° 0.1 mm 5 mps 727 mmHg 60%
    15:00 +20°C° 0.1 mm 5 mps 727 mmHg 61%
    16:00 +20°C° 0.1 mm 5 mps 727 mmHg 62%
    17:00 +19°C° 0.1 mm 5 mps 727 mmHg 68%
    18:00 +18°C° 0.1 mm 4 mps 727 mmHg 74%
    19:00 +15°C° 0.1 mm 4 mps 727 mmHg 80%
    20:00 +14°C° 0 mm 3 mps 727 mmHg 84%
    21:00 +13°C° 0 mm 3 mps 727 mmHg 87%
    22:00 +13°C° 0 mm 2 mps 728 mmHg 91%
    23:00 +13°C° 0.1 mm 2 mps 727 mmHg 90%

    Day after tomorrow, 26 July, Wednesday

    Time Temperature Precipitation Wind Pressure Humidity
    00:00 +13°C° 0.1 mm 2 mps 727 mmHg 90%
    01:00 +13°C° 0.1 mm 2 mps 727 mmHg 89%
    02:00 +12°C° 0.1 mm 3 mps 727 mmHg 88%
    03:00 +12°C° 0.1 mm 3 mps 726 mmHg 88%
    04:00 +12°C° 0.1 mm 3 mps 726 mmHg 87%
    05:00 +12°C° 0.8 mm 4 mps 726 mmHg 88%
    06:00 +13°C° 0.8 mm 4 mps 726 mmHg 88%
    07:00 +13°C° 0.8 mm 4 mps 726 mmHg 89%
    08:00 +13°C° 1.2 mm 4 mps 726 mmHg 90%
    09:00 +13°C° 1.2 mm 4 mps 726 mmHg 90%
    10:00 +13°C° 1.2 mm 4 mps 726 mmHg 91%
    11:00 +13°C° 1.8 mm 4 mps 726 mmHg 93%
    12:00 +13°C° 1.8 mm 4 mps 727 mmHg 94%
    13:00 +13°C° 1.8 mm 4 mps 727 mmHg 95%
    14:00 +13°C° 1.2 mm 4 mps 727 mmHg 94%
    15:00 +13°C° 1.2 mm 5 mps 727 mmHg 94%
    16:00 +13°C° 1.2 mm 5 mps 728 mmHg 93%
    17:00 +13°C° 0.4 mm 4 mps 728 mmHg 94%
    18:00 +13°C° 0.4 mm 4 mps 728 mmHg 94%
    19:00 +13°C° 0.4 mm 4 mps 729 mmHg 95%
    20:00 +13°C° 0.7 mm 4 mps 729 mmHg 95%
    21:00 +13°C° 0.7 mm 4 mps 729 mmHg 95%
    22:00 +13°C° 0.7 mm 3 mps 730 mmHg 95%
    23:00 +13°C° 1.5 mm 3 mps 730 mmHg 96%

    27 July, Thursday

    Time Temperature Precipitation Wind Pressure Humidity
    00:00 +13°C° 1.5 mm 3 mps 730 mmHg 96%
    01:00 +13°C° 1.5 mm 3 mps 730 mmHg 96%
    02:00 +13°C° 1.4 mm 3 mps 730 mmHg 96%
    03:00 +13°C° 1.4 mm 3 mps 730 mmHg 96%
    04:00 +13°C° 1.4 mm 3 mps 730 mmHg 96%
    05:00 +13°C° 0.7 mm 3 mps 730 mmHg 95%
    06:00 +15°C° 0.7 mm 2 mps 730 mmHg 94%
    07:00 +15°C° 0.7 mm 2 mps 730 mmHg 93%
    08:00 +17°C° 0.1 mm 2 mps 730 mmHg 87%
    09:00 +18°C° 0.1 mm 3 mps 730 mmHg 80%
    10:00 +20°C° 0.1 mm 3 mps 730 mmHg 74%
    11:00 +20°C° 0.1 mm 3 mps 730 mmHg 70%
    12:00 +21°C° 0.1 mm 4 mps 730 mmHg 66%
    13:00 +22°C° 0.1 mm 4 mps 730 mmHg 61%
    14:00 +21°C° 0.5 mm 4 mps 730 mmHg 70%
    15:00 +19°C° 0.5 mm 4 mps 730 mmHg 79%
    16:00 +18°C° 0.5 mm 3 mps 730 mmHg 87%
    17:00 +17°C° 0.7 mm 3 mps 730 mmHg 90%
    18:00 +17°C° 0.7 mm 2 mps 730 mmHg 92%
    19:00 +16°C° 0.7 mm 2 mps 730 mmHg 95%
    20:00 +16°C° 0 mm 2 mps 731 mmHg 95%
    21:00 +15°C° 0 mm 2 mps 731 mmHg 94%
    22:00 +15°C° 0 mm 2 mps 731 mmHg 94%
    23:00 +15°C° 0 mm 1 mps 731 mmHg 94%

    28 July, Friday

    Time Temperature Precipitation Wind Pressure Humidity
    00:00 +14°C° 0 mm 1 mps 731 mmHg 93%
    01:00 +14°C° 0 mm 1 mps 731 mmHg 93%
    02:00 +14°C° 0 mm 1 mps 731 mmHg 93%
    03:00 +14°C° 0 mm 1 mps 731 mmHg 93%
    04:00 +14°C° 0 mm 1 mps 731 mmHg 93%
    05:00 +15°C° 0.4 mm 1 mps 731 mmHg 93%
    06:00 +15°C° 0.4 mm 1 mps 731 mmHg 93%
    07:00 +16°C° 0.4 mm 1 mps 731 mmHg 93%
    08:00 +17°C° 0.9 mm 2 mps 731 mmHg 93%
    09:00 +17°C° 0.9 mm 2 mps 732 mmHg 92%
    10:00 +18°C° 0.9 mm 3 mps 732 mmHg 91%
    11:00 +20°C° 0.4 mm 3 mps 732 mmHg 85%
    12:00 +21°C° 0.4 mm 4 mps 732 mmHg 79%
    13:00 +22°C° 0.4 mm 4 mps 732 mmHg 74%
    14:00 +23°C° 0.3 mm 4 mps 732 mmHg 72%
    15:00 +23°C° 0.3 mm 4 mps 732 mmHg 71%
    16:00 +23°C° 0.3 mm 4 mps 733 mmHg 69%
    17:00 +22°C° 0.1 mm 4 mps 733 mmHg 74%
    18:00 +21°C° 0.1 mm 3 mps 733 mmHg 78%
    19:00 +19°C° 0.1 mm 2 mps 734 mmHg 83%
    20:00 +18°C° 0 mm 2 mps 734 mmHg 86%
    21:00 +18°C° 0 mm 1 mps 735 mmHg 89%
    22:00 +15°C° 0 mm 1 mps 735 mmHg 92%
    23:00 +15°C° 0 mm 1 mps 736 mmHg 93%

    29 July, Saturday

    Time Temperature Precipitation Wind Pressure Humidity
    00:00 +14°C° 0 mm 1 mps 736 mmHg 93%
    01:00 +14°C° 0 mm 1 mps 736 mmHg 93%
    02:00 +14°C° 0 mm 1 mps 736 mmHg 93%
    03:00 +14°C° 0 mm 1 mps 736 mmHg 93%
    04:00 +13°C° 0 mm 1 mps 736 mmHg 94%
    05:00 +15°C° 0 mm 1 mps 736 mmHg 90%
    06:00 +16°C° 0 mm 1 mps 736 mmHg 86%
    07:00 +17°C° 0 mm 0 mps 736 mmHg 82%
    08:00 +21°C° 0 mm 1 mps 736 mmHg 74%
    09:00 +23°C° 0 mm 1 mps 736 mmHg 67%
    10:00 +25°C° 0 mm 1 mps 736 mmHg 59%
    11:00 +26°C° 0 mm 1 mps 736 mmHg 56%
    12:00 +27°C° 0 mm 2 mps 736 mmHg 54%
    13:00 +28°C° 0 mm 2 mps 735 mmHg 51%
    14:00 +28°C° 0 mm 2 mps 735 mmHg 52%
    15:00 +28°C° 0 mm 2 mps 735 mmHg 53%
    16:00 +29°C° 0 mm 2 mps 734 mmHg 53%
    17:00 +27°C° 0 mm 1 mps 734 mmHg 61%
    18:00 +25°C° 0 mm 1 mps 734 mmHg 69%
    19:00 +24°C° 0 mm 1 mps 734 mmHg 77%
    20:00 +23°C° 0.1 mm 1 mps 735 mmHg 78%
    21:00 +22°C° 0.1 mm 1 mps 735 mmHg 80%
    22:00 +21°C° 0.1 mm 1 mps 735 mmHg 81%
    23:00 +20°C° 0 mm 1 mps 735 mmHg 81%
    Show more